Location: *
(45.0500°N, 12.0500°E)
Time: 17:36:29
(UTC+00:00)

ATLAS 5 CENTAUR R/B - Pass Details

Date: 09 April 2020
Orbit: 242 x 12941 km, 20.2° (Epoch: 25 May)

Event Time Altitude Azimuth Distance (km) Brightness Sun altitude
Rises 18:53:36 0° 199° (SSW) 3,266 4.7 -11.5°
Reaches altitude 10° 18:57:30 10° 167° (SSE) 3,345 4.4 -12.1°
Maximum altitude 19:00:44 12° 145° (SE) 4,023 4.7 -12.6°
Enters shadow 19:02:35 12° 136° (SE) 4,543 4.9 -12.9°
